DW5759 Weather Reports


Display with metric or nautical units.
time (UTC)temp
F
wind
direction
speed
MPH
gust
MPH
rain 1hr
in
rain 24hr
in
rain mn
in
humidity
%
barometer
mb
20260906094539 59 1 0.0 0.0 0.00 0.00 0.00 91 1013.5
20260906093004 59 1 0.0 0.0 0.00 0.00 0.00 91 1013.5
20260906091504 59 1 0.0 0.0 0.00 0.00 0.00 90 1013.4
20260906090033 60 1 0.0 0.0 0.00 0.00 0.00 89 1013.3
20260906084514 61 1 0.0 0.0 0.00 0.00 0.00 88 1013.3
20260906083017 61 1 0.0 0.0 0.00 0.00 0.00 88 1013.1
20260906081504 62 1 0.0 0.0 0.00 0.00 0.00 87 1012.9
20260906080034 62 1 0.0 0.0 0.00 0.00 0.00 86 1013.0
20260906074507 63 314 0.0 0.0 0.00 0.00 0.00 86 1013.0
20260906073015 64 314 0.0 0.0 0.00 0.00 0.00 85 1012.9
20260906071532 64 6 0.0 0.0 0.00 0.00 0.00 84 1012.9
20260906070004 64 8 0.0 1.0 0.00 0.00 0.00 83 1012.9
20260906064507 65 359 0.0 0.0 0.00 0.00 0.00 83 1012.8
20260906063010 65 360 0.0 0.0 0.00 0.00 0.00 83 1012.8
20260906061534 65 360 0.0 0.0 0.00 0.00 0.00 82 1012.8
20260906060024 65 13 0.0 0.0 0.00 0.00 0.00 82 1012.9
20260906054502 65 13 0.0 0.0 0.00 0.00 0.00 82 1013.1
20260906053009 65 13 0.0 0.0 0.00 0.00 0.00 81 1013.1
20260906051515 65 13 0.0 0.0 0.00 0.00 0.00 81 1013.1
20260906050018 66 13 0.0 0.0 0.00 0.00 0.00 80 1013.1
20260906044524 66 14 0.0 2.0 0.00 0.00 0.00 79 1013.0
20260906043003 67 347 0.0 0.0 0.00 0.00 0.00 78 1012.9
20260906041510 66 1 0.0 3.0 0.00 0.00 0.00 78 1012.9
20260906040014 66 356 0.0 5.0 0.00 0.00 0.00 78 1013.1
20260906034533 67 328 0.0 0.0 0.00 0.00 0.00 77 1013.0
20260906033032 67 325 0.0 0.0 0.00 0.00 0.00 78 1013.0
20260906031510 67 288 0.0 1.0 0.00 0.00 0.00 79 1012.7
20260906030011 66 306 0.0 0.0 0.00 0.00 0.00 81 1012.6
20260906024517 65 356 0.0 0.0 0.00 0.00 0.00 82 1012.7
20260906023029 65 314 0.0 0.0 0.00 0.00 0.00 83 1012.7
20260906021505 65 314 0.0 0.0 0.00 0.00 0.00 83 1012.6
20260906020008 65 314 0.0 0.0 0.00 0.00 0.00 82 1012.5
20260906014513 66 314 0.0 0.0 0.00 0.00 0.00 80 1012.5
20260906013017 67 319 0.0 0.0 0.00 0.00 0.00 79 1012.2
20260906011525 66 354 0.0 2.0 0.00 0.00 0.00 80 1012.3
20260906010006 66 360 0.0 0.0 0.00 0.00 0.00 81 1012.2
20260906004508 66 1 0.0 0.0 0.00 0.00 0.00 81 1012.2
20260906003015 66 1 0.0 0.0 0.00 0.00 0.00 80 1011.9
20260906001538 68 1 0.0 0.0 0.00 0.00 0.00 79 1011.8
20260906000028 68 1 0.0 0.0 0.00 0.00 0.00 76 1011.9
20260905234506 68 1 0.0 0.0 0.00 0.00 0.00 78 1011.7
20260905233014 69 1 0.0 0.0 0.00 0.00 0.00 77 1011.5
20260905231522 69 1 0.0 0.0 0.00 0.00 0.00 76 1011.5
20260905230039 70 1 0.0 1.0 0.00 0.00 0.00 77 1011.3
20260905224530 70 348 0.0 0.0 0.00 0.00 0.00 76 1011.2
20260905223011 71 4 0.0 0.0 0.00 0.00 0.00 75 1011.3
20260905221517 71 7 0.0 5.0 0.00 0.00 0.00 75 1011.2
20260905220035 71 359 0.0 3.0 0.00 0.00 0.00 73 1011.2
20260905214527 72 360 0.0 4.0 0.00 0.00 0.00 72 1011.1
20260905213033 73 300 0.0 3.0 0.00 0.00 0.00 70 1010.9
20260905211510 74 335 0.0 5.0 0.00 0.00 0.00 70 1010.8
20260905210016 73 352 0.0 0.0 0.00 0.00 0.00 74 1010.7
20260905204534 73 4 0.0 4.0 0.00 0.00 0.00 72 1010.7
20260905203030 74 360 0.0 5.0 0.00 0.00 0.00 71 1010.6
20260905201534 74 309 0.0 3.0 0.00 0.00 0.00 70 1010.6
20260905200046 74 302 0.0 4.0 0.00 0.00 0.00 69 1010.5
20260905194516 73 13 0.0 5.0 0.00 0.00 0.00 71 1010.5
20260905193013 74 1 0.0 0.0 0.00 0.00 0.00 70 1010.4
20260905191504 76 359 0.0 2.0 0.00 0.00 0.00 67 1010.3
20260905190010 76 18 0.0 3.0 0.00 0.00 0.00 66 1010.4
20260905184532 75 335 0.0 1.0 0.00 0.00 0.00 69 1010.5
20260905183003 77 359 0.0 3.0 0.00 0.00 0.00 66 1010.6
20260905181505 76 310 0.0 4.0 0.00 0.00 0.00 65 1010.6
20260905180040 76 359 0.0 3.0 0.00 0.00 0.00 68 1010.6
20260905174515 76 340 0.0 4.0 0.00 0.00 0.00 67 1010.6
20260905173043 75 1 0.0 0.0 0.00 0.00 0.00 67 1010.6
20260905171507 74 335 0.0 4.0 0.00 0.00 0.00 70 1010.8
20260905170028 74 1 0.0 1.0 0.00 0.00 0.00 69 1010.9
20260905164508 74 6 0.0 3.0 0.00 0.00 0.00 69 1010.9
20260905163014 74 292 0.0 0.0 0.00 0.00 0.00 72 1010.9
20260905161520 74 42 0.0 6.0 0.00 0.00 0.00 71 1011.0
20260905160004 74 79 0.0 4.0 0.00 0.00 0.00 72 1011.0
20260905154506 73 33 0.0 3.0 0.00 0.00 0.00 72 1010.9
20260905153036 73 347 0.0 4.0 0.00 0.00 0.00 74 1011.0
20260905151517 72 283 0.0 5.0 0.00 0.00 0.00 73 1011.0
20260905150037 72 327 0.0 3.0 0.00 0.00 0.00 74 1011.2
20260905144512 72 13 0.0 3.0 0.00 0.01 0.00 75 1011.1
20260905143036 71 323 0.0 0.0 0.00 0.01 0.00 77 1011.1
20260905141515 71 243 0.0 0.0 0.00 0.01 0.00 78 1011.1
20260905140018 71 6 0.0 0.0 0.00 0.01 0.00 79 1010.9
20260905134539 70 1 0.0 0.0 0.00 0.02 0.00 82 1010.9
20260905133006 67 198 0.0 0.0 0.00 0.02 0.00 88 1011.0
20260905131511 64 167 0.0 0.0 0.00 0.02 0.00 91 1011.1
20260905130014 63 146 0.0 0.0 0.00 0.02 0.00 92 1011.3
20260905124528 62 167 0.0 0.0 0.00 0.02 0.00 93 1011.3
20260905123055 62 167 0.0 0.0 0.00 0.02 0.00 94 1011.4
20260905121515 61 167 0.0 0.0 0.00 0.02 0.00 94 1011.4
20260905120020 61 167 0.0 0.0 0.00 0.02 0.00 94 1011.4
20260905114524 60 167 0.0 0.0 0.00 0.02 0.00 94 1011.3
20260905113030 59 162 0.0 0.0 0.00 0.02 0.00 94 1011.1
20260905111530 59 101 0.0 0.0 0.00 0.03 0.00 94 1010.8
20260905110016 58 101 0.0 0.0 0.00 0.03 0.00 94 1010.6
20260905104516 58 101 0.0 0.0 0.00 0.03 0.00 93 1010.3
20260905103029 58 101 0.0 0.0 0.00 0.03 0.00 93 1010.0
20260905101506 58 101 0.0 0.0 0.00 0.03 0.00 93 1010.0
20260905100010 59 103 0.0 0.0 0.00 0.03 0.00 93 1010.0